Location: Hall+in+Tirol
(47.2830°N, 11.5170°E)
Time: 03:37:20
(UTC+02:00)

Amateur Radio Satellites - All Passes

Search period start: 23 October 2014 03:07
Search period end: 24 October 2014 03:07
Location: Hall+in+Tirol, 47.2830°N, 11.5170°E

Satellite Date Start Highest point End Downlink Frequencies (MHz)
Time Altitude Azimuth
Oscar 19 23 Oct 03:14:37 03:19:45 76° 287° (WNW) 03:24:50 437.125 CW, 437.150 USB
OPAL 23 Oct 03:25:50 03:27:13 11° 49° (NE) 03:28:35 ?
AO-27 23 Oct 03:26:13 03:31:26 61° 102° (ESE) 03:36:35 436.795 MHz FM
JAS-1B 23 Oct 03:26:18 03:32:41 86° 287° (WNW) 03:40:17 435.800 - 435.900 CW/SSB
AO-7 23 Oct 03:48:21 03:52:20 14° 84° (E) 03:56:18 29.400 - 29.500 MHz
Oscar 16 23 Oct 04:00:26 04:04:57 32° 296° (WNW) 04:09:26 437.025 USB, Beacon 2401.1428
Sapphire 23 Oct 04:02:38 04:06:26 20° 106° (ESE) 04:10:15 437.095 MHz 1200 baud AX-25 AFSK
AO-Echo 23 Oct 04:14:05 04:19:04 43° 292° (WNW) 04:24:04 ?
Uribyol 2 23 Oct 04:15:21 04:20:25 51° 291° (WNW) 04:25:26 436.500 FM
Uosat F 23 Oct 04:20:24 04:22:17 12° 87° (E) 04:24:09 435.120 FM
ITAMSAT 1 23 Oct 04:20:47 04:25:49 49° 292° (WNW) 04:30:50 435.822 SSB
PCSat 23 Oct 04:24:17 04:29:00 32° 111° (ESE) 04:33:46 145.825 MHz
Gurwin Techsat 1B 23 Oct 04:26:36 04:31:57 77° 287° (WNW) 04:37:15 435.225 FM
TMSAT-1 23 Oct 04:39:23 04:44:43 79° 287° (WNW) 04:50:01 436.925 FM
Oscar 19 23 Oct 04:55:59 04:58:15 13° 306° (NW) 05:00:30 437.125 CW, 437.150 USB
OPAL 23 Oct 05:00:03 05:05:07 61° 68° (ENE) 05:10:09 ?
AO-27 23 Oct 05:06:33 05:10:31 22° 300° (WNW) 05:14:28 436.795 MHz FM
RS-15 23 Oct 05:11:28 05:21:22 36° 19° (NNE) 05:31:31 29.354 - 29.394 USB, Beacon 29.352 USB
JAS-1B 23 Oct 05:18:32 05:22:42 19° 305° (NW) 05:27:16 435.800 - 435.900 CW/SSB
AO-7 23 Oct 05:38:25 05:46:44 67° 105° (ESE) 05:55:00 29.400 - 29.500 MHz
Sapphire 23 Oct 05:43:53 05:49:17 72° 305° (NW) 05:54:44 437.095 MHz 1200 baud AX-25 AFSK
JAS-2 23 Oct 05:53:24 06:00:17 34° 92° (E) 06:07:15 435.800 - 435.900 CW/SSB, 435.910 FM
Uosat F 23 Oct 05:56:43 06:01:49 86° 106° (ESE) 06:06:53 435.120 FM
PCSat 23 Oct 06:07:01 06:12:15 48° 311° (NW) 06:17:31 145.825 MHz
Gurwin Techsat 1B 23 Oct 06:08:29 06:11:03 14° 306° (NW) 06:13:38 435.225 FM
TMSAT-1 23 Oct 06:21:09 06:23:48 14° 306° (NW) 06:26:26 436.925 FM
OPAL 23 Oct 06:40:37 06:44:23 20° 266° (W) 06:48:09 ?
STRAND 1 23 Oct 06:40:54 06:45:53 54° 70° (ENE) 06:50:54 ?
Hamsat 23 Oct 07:00:13 07:04:23 62° 101° (E) 07:08:33 145.90 MHz
RS-15 23 Oct 07:24:42 07:35:51 75° 49° (NE) 07:47:26 29.354 - 29.394 USB, Beacon 29.352 USB
Sapphire 23 Oct 07:29:53 07:33:41 19° 328° (NNW) 07:37:31 437.095 MHz 1200 baud AX-25 AFSK
AO-7 23 Oct 07:31:48 07:39:03 35° 306° (NW) 07:46:18 29.400 - 29.500 MHz
Uosat F 23 Oct 07:36:59 07:39:56 16° 304° (NW) 07:42:53 435.120 FM
JAS-2 23 Oct 07:38:06 07:45:36 62° 291° (WNW) 07:53:19 435.800 - 435.900 CW/SSB, 435.910 FM
PCSat 23 Oct 07:54:04 07:57:03 15° 334° (NNW) 08:00:03 145.825 MHz
Saudisat 1A 23 Oct 08:02:16 08:05:36 21° 114° (ESE) 08:08:57 436.775 MHz
SO-67 23 Oct 08:11:20 08:14:44 51° 100° (E) 08:18:06 435.3500 MHz FM
STRAND 1 23 Oct 08:21:25 08:25:24 22° 268° (W) 08:29:24 ?
Hamsat 23 Oct 08:37:25 08:39:53 15° 299° (WNW) 08:42:21 145.90 MHz
HO-68 23 Oct 08:46:16 08:50:29 16° 86° (E) 08:54:41 435.675 MHz FM
JAS-2 23 Oct 09:24:50 09:29:17 17° 311° (NW) 09:33:49 435.800 - 435.900 CW/SSB, 435.910 FM
AO-7 23 Oct 09:27:35 09:29:23 11° 330° (NNW) 09:31:10 29.400 - 29.500 MHz
RS-15 23 Oct 09:37:39 09:47:27 38° 252° (WSW) 09:57:37 29.354 - 29.394 USB, Beacon 29.352 USB
Saudisat 1A 23 Oct 09:40:31 09:44:50 54° 312° (NW) 09:49:11 436.775 MHz
SO-67 23 Oct 09:45:46 09:47:18 13° 297° (WNW) 09:48:50 435.3500 MHz FM
UKube-1 23 Oct 10:00:56 10:03:58 18° 92° (E) 10:06:59 145.840 MHz, 145.915 MHz
MaSat-1 23 Oct 10:01:55 10:04:41 80° 242° (WSW) 10:07:10 437.345 MHz
HO-68 23 Oct 10:32:04 10:39:19 80° 106° (ESE) 10:46:31 435.675 MHz FM
FUNcube-1 23 Oct 10:37:00 10:39:53 17° 90° (E) 10:42:42 145.950 - 145.970 MHz USB
Oscar 11 23 Oct 10:43:32 10:47:42 45° 99° (E) 10:51:49 145.825 FM, Beacon 2401.500 USB
Sapphire 23 Oct 11:03:22 11:05:37 12° 21° (NNE) 11:07:52 437.095 MHz 1200 baud AX-25 AFSK
Saudisat 1A 23 Oct 11:22:55 11:25:22 15° 334° (NNW) 11:27:50 436.775 MHz
PCSat 23 Oct 11:25:48 11:29:01 16° 28° (NNE) 11:32:14 145.825 MHz
ZACube-1 23 Oct 11:27:03 11:31:18 56° 100° (E) 11:35:26 437.345 MHz
UKube-1 23 Oct 11:36:12 11:40:27 51° 290° (WNW) 11:44:41 145.840 MHz, 145.915 MHz
Oscar 16 23 Oct 12:05:10 12:07:29 13° 54° (NE) 12:09:49 437.025 USB, Beacon 2401.1428
FUNcube-1 23 Oct 12:12:25 12:16:36 50° 289° (WNW) 12:20:39 145.950 - 145.970 MHz USB
Oscar 11 23 Oct 12:20:22 12:23:36 21° 297° (WNW) 12:26:49 145.825 FM, Beacon 2401.500 USB
HO-68 23 Oct 12:20:40 12:26:19 26° 307° (NW) 12:31:57 435.675 MHz FM
JAS-1B 23 Oct 12:28:04 12:32:00 19° 56° (NE) 12:35:53 435.800 - 435.900 CW/SSB
Sapphire 23 Oct 12:45:41 12:50:43 36° 45° (NE) 12:55:42 437.095 MHz 1200 baud AX-25 AFSK
KITSAT 1 23 Oct 12:50:50 12:58:28 48° 114° (ESE) 13:06:07 435.175 FM
Oscar 19 23 Oct 12:56:13 13:00:44 32° 64° (ENE) 13:05:15 437.125 CW, 437.150 USB
ZACube-1 23 Oct 13:04:29 13:07:17 17° 299° (WNW) 13:10:02 437.345 MHz
PCSat 23 Oct 13:08:23 13:13:43 53° 51° (NE) 13:19:01 145.825 MHz
AO-27 23 Oct 13:10:02 13:13:48 21° 59° (ENE) 13:17:35 436.795 MHz FM
SO-50 23 Oct 13:12:39 13:15:55 20° 112° (ESE) 13:19:15 436.795 FM
Oscar 16 23 Oct 13:40:51 13:46:00 76° 73° (ENE) 13:51:10 437.025 USB, Beacon 2401.1428
ISS 23 Oct 13:49:31 13:52:12 23° 140° (SE) 13:54:54 145.800 FM
AO-Echo 23 Oct 13:51:33 13:56:15 49° 69° (ENE) 14:01:09 ?
Uribyol 2 23 Oct 13:57:08 14:02:09 49° 69° (ENE) 14:07:12 436.500 FM
ITAMSAT 1 23 Oct 14:02:38 14:07:41 52° 69° (ENE) 14:12:45 435.822 SSB
Gurwin Techsat 1B 23 Oct 14:11:47 14:16:33 35° 65° (ENE) 14:21:20 435.225 FM
JAS-1B 23 Oct 14:16:12 14:22:10 74° 256° (WSW) 14:27:51 435.800 - 435.900 CW/SSB
TMSAT-1 23 Oct 14:24:18 14:29:02 34° 65° (ENE) 14:33:46 436.925 FM
Sapphire 23 Oct 14:29:06 14:34:16 45° 245° (WSW) 14:39:23 437.095 MHz 1200 baud AX-25 AFSK
Oscar 19 23 Oct 14:35:11 14:39:59 39° 263° (W) 14:44:48 437.125 CW, 437.150 USB
KITSAT 1 23 Oct 14:46:03 14:53:53 51° 316° (NW) 15:01:45 435.175 FM
Saudisat 1A 23 Oct 14:46:19 14:48:31 13° 24° (NNE) 14:50:42 436.775 MHz
UOSAT-12 23 Oct 14:46:53 14:49:54 17° 111° (ESE) 14:52:56 437.025 FM, 437.400 FM
AO-27 23 Oct 14:47:39 14:52:49 67° 258° (WSW) 14:58:03 436.795 MHz FM
AO-7 23 Oct 14:49:59 14:56:55 31° 52° (NE) 15:03:51 29.400 - 29.500 MHz
SO-50 23 Oct 14:51:32 14:56:01 61° 312° (NW) 15:00:40 436.795 FM
PCSat 23 Oct 14:52:17 14:56:51 28° 250° (WSW) 15:01:24 145.825 MHz
Oscar 16 23 Oct 15:22:52 15:25:56 16° 271° (W) 15:29:02 437.025 USB, Beacon 2401.1428
ISS 23 Oct 15:25:18 15:28:38 74° 338° (NNW) 15:32:00 145.800 FM
AO-Echo 23 Oct 15:31:27 15:35:19 23° 268° (W) 15:39:19 ?
Uosat F 23 Oct 15:35:42 15:39:45 25° 62° (ENE) 15:43:49 435.120 FM
Uribyol 2 23 Oct 15:37:37 15:41:52 25° 267° (W) 15:46:10 436.500 FM
ITAMSAT 1 23 Oct 15:43:18 15:47:28 24° 267° (W) 15:51:40 435.822 SSB
Gurwin Techsat 1B 23 Oct 15:51:36 15:56:29 37° 264° (W) 16:01:24 435.225 FM
TMSAT-1 23 Oct 16:03:59 16:08:53 38° 263° (W) 16:13:50 436.925 FM
JAS-2 23 Oct 16:10:55 16:15:13 20° 52° (NE) 16:19:52 435.800 - 435.900 CW/SSB, 435.910 FM
UOSAT-12 23 Oct 16:24:50 16:29:30 73° 309° (NW) 16:34:15 437.025 FM, 437.400 FM
Saudisat 1A 23 Oct 16:24:52 16:29:09 47° 46° (NE) 16:33:26 436.775 MHz
SO-50 23 Oct 16:34:35 16:37:33 17° 334° (NNW) 16:40:33 436.795 FM
AO-7 23 Oct 16:40:46 16:49:02 76° 253° (WSW) 16:57:22 29.400 - 29.500 MHz
KITSAT 1 23 Oct 16:45:12 16:51:23 23° 343° (NNW) 16:57:35 435.175 FM
ISS 23 Oct 17:02:30 17:05:39 37° 358° (N) 17:08:48 145.800 FM
OPAL 23 Oct 17:09:44 17:10:50 11° 88° (E) 17:11:55 ?
Uosat F 23 Oct 17:13:23 17:18:15 50° 260° (W) 17:23:10 435.120 FM
JAS-2 23 Oct 17:53:17 17:59:14 89° 74° (ENE) 18:06:05 435.800 - 435.900 CW/SSB, 435.910 FM
Hamsat 23 Oct 17:56:19 18:00:29 65° 74° (ENE) 18:04:40 145.90 MHz
Saudisat 1A 23 Oct 18:04:51 18:08:31 26° 245° (WSW) 18:12:09 436.775 MHz
UOSAT-12 23 Oct 18:07:09 18:10:28 19° 331° (NNW) 18:13:48 437.025 FM, 437.400 FM
AO-7 23 Oct 18:38:20 18:43:14 17° 274° (W) 18:48:10 29.400 - 29.500 MHz
ISS 23 Oct 18:39:26 18:42:44 56° 18° (NNE) 18:46:02 145.800 FM
KITSAT 1 23 Oct 18:44:05 18:50:04 22° 13° (NNE) 18:56:03 435.175 FM
OPAL 23 Oct 18:45:31 18:50:32 81° 107° (ESE) 18:55:28 ?
SO-67 23 Oct 18:47:06 18:50:04 28° 69° (ENE) 18:53:03 435.3500 MHz FM
STRAND 1 23 Oct 18:49:52 18:52:33 14° 88° (E) 18:55:14 ?
HO-68 23 Oct 19:18:55 19:23:52 21° 50° (NE) 19:28:50 435.675 MHz FM
Hamsat 23 Oct 19:34:51 19:36:53 13° 271° (W) 19:38:55 145.90 MHz
JAS-2 23 Oct 19:41:45 19:45:28 17° 277° (W) 19:49:27 435.800 - 435.900 CW/SSB, 435.910 FM
SO-50 23 Oct 20:00:01 20:02:47 15° 24° (NNE) 20:05:34 436.795 FM
ISS 23 Oct 20:16:16 20:19:21 34° 216° (SW) 20:22:25 145.800 FM
SO-67 23 Oct 20:20:28 20:23:04 20° 267° (W) 20:25:42 435.3500 MHz FM
OPAL 23 Oct 20:25:41 20:28:48 17° 306° (NW) 20:31:55 ?
STRAND 1 23 Oct 20:27:13 20:32:25 84° 286° (WNW) 20:37:34 ?
KITSAT 1 23 Oct 20:40:07 20:47:49 45° 41° (NE) 20:55:29 435.175 FM
UKube-1 23 Oct 20:59:16 21:02:48 25° 64° (ENE) 21:06:21 145.840 MHz, 145.915 MHz
HO-68 23 Oct 21:03:24 21:10:34 81° 70° (ENE) 21:17:47 435.675 MHz FM
UOSAT-12 23 Oct 21:32:30 21:34:50 13° 20° (NNE) 21:37:09 437.025 FM, 437.400 FM
FUNcube-1 23 Oct 21:36:02 21:39:39 24° 64° (ENE) 21:43:14 145.950 - 145.970 MHz USB
SO-50 23 Oct 21:39:47 21:44:28 49° 46° (NE) 21:49:12 436.795 FM
Oscar 11 23 Oct 21:41:24 21:45:36 53° 72° (ENE) 21:49:50 145.825 FM, Beacon 2401.500 USB
RS-15 23 Oct 21:54:05 22:03:06 31° 105° (ESE) 22:12:02 29.354 - 29.394 USB, Beacon 29.352 USB
STRAND 1 23 Oct 22:08:07 22:10:50 15° 305° (NW) 22:13:32 ?
ZACube-1 23 Oct 22:25:59 22:30:33 69° 74° (ENE) 22:35:04 437.345 MHz
UKube-1 23 Oct 22:34:45 22:38:49 39° 262° (W) 22:42:55 145.840 MHz, 145.915 MHz
KITSAT 1 23 Oct 22:35:39 22:43:31 58° 244° (WSW) 22:51:21 435.175 FM
HO-68 23 Oct 22:53:46 22:59:04 22° 270° (W) 23:04:25 435.675 MHz FM
FUNcube-1 23 Oct 23:11:24 23:15:47 44° 262° (W) 23:20:08 145.950 - 145.970 MHz USB
UOSAT-12 23 Oct 23:11:46 23:16:16 40° 43° (NE) 23:20:41 437.025 FM, 437.400 FM
Oscar 11 23 Oct 23:19:15 23:22:06 17° 269° (W) 23:24:58 145.825 FM, Beacon 2401.500 USB
SO-50 23 Oct 23:20:42 23:24:51 29° 244° (WSW) 23:29:01 436.795 FM
MaSat-1 23 Oct 23:43:02 23:45:22 15° 107° (ESE) 23:47:36 437.345 MHz
RS-15 24 Oct 00:03:15 00:14:15 82° 309° (NW) 00:25:18 29.354 - 29.394 USB, Beacon 29.352 USB
ZACube-1 24 Oct 00:04:49 00:07:24 15° 271° (W) 00:09:58 437.345 MHz
KITSAT 1 24 Oct 00:34:51 00:37:10 11° 264° (W) 00:39:29 435.175 FM
UOSAT-12 24 Oct 00:52:05 00:56:22 34° 243° (WSW) 01:00:34 437.025 FM, 437.400 FM
MaSat-1 24 Oct 01:16:42 01:20:45 58° 302° (WNW) 01:24:23 437.345 MHz
Oscar 16 24 Oct 01:50:10 01:54:00 21° 91° (E) 01:57:49 437.025 USB, Beacon 2401.1428
JAS-1B 24 Oct 01:55:18 02:00:43 26° 94° (E) 02:06:49 435.800 - 435.900 CW/SSB
AO-Echo 24 Oct 01:56:58 01:59:36 14° 87° (E) 02:02:15 ?
Uribyol 2 24 Oct 02:08:23 02:10:53 13° 87° (E) 02:13:21 436.500 FM
ITAMSAT 1 24 Oct 02:13:51 02:16:37 14° 88° (E) 02:19:21 435.822 SSB
RS-15 24 Oct 02:18:28 02:28:24 38° 338° (NNW) 02:38:29 29.354 - 29.394 USB, Beacon 29.352 USB
Oscar 19 24 Oct 02:43:04 02:48:08 59° 101° (E) 02:53:10 437.125 CW, 437.150 USB
AO-27 24 Oct 02:57:41 03:02:28 35° 96° (E) 03:07:12 436.795 MHz FM
